This is the latest recevied weather packets stored in our database for station/object G4WLC-1. If no packets are shown the sender has not sent any weather packets the latest 10 day(s).
| Time | Temp. | Humidity | Pressure | Rain* | Wind** | Luminosity | Snow |
|---|---|---|---|---|---|---|---|
| 1778161978 | 12.78° C | 72% | 1015.1 hPa | 0 mm | - | - | - |
| 1778161678 | 12.78° C | 73% | 1015.1 hPa | 0 mm | - | - | - |
| 1778161378 | 12.78° C | 71% | 1015.2 hPa | 0 mm | - | - | - |
| 1778161078 | 13.33° C | 72% | 1015.1 hPa | 0 mm | - | - | - |
| 1778160778 | 13.33° C | 71% | 1015.2 hPa | 0 mm | - | - | - |
| 1778160478 | 13.33° C | 72% | 1015.2 hPa | 0 mm | - | - | - |
| 1778160178 | 13.33° C | 71% | 1015.3 hPa | 0 mm | - | - | - |
| 1778159878 | 13.33° C | 75% | 1015.3 hPa | 0 mm | - | - | - |
| 1778159578 | 13.33° C | 72% | 1015.3 hPa | 0 mm | - | - | - |
| 1778159278 | 12.78° C | 70% | 1015.3 hPa | 0 mm | - | - | - |
| 1778158978 | 12.78° C | 73% | 1015.3 hPa | 0 mm | - | - | - |
| 1778158678 | 12.78° C | 73% | 1015.3 hPa | 0 mm | - | - | - |
| 1778158378 | 12.78° C | 73% | 1015.3 hPa | 0 mm | - | - | - |
| 1778158078 | 12.78° C | 71% | 1015.4 hPa | 0 mm | - | - | - |
| 1778157778 | 13.33° C | 70% | 1015.3 hPa | 0 mm | - | - | - |
| 1778157478 | 13.33° C | 70% | 1015.4 hPa | 0 mm | - | - | - |
| 1778157178 | 13.89° C | 67% | 1015.5 hPa | 0 mm | - | - | - |
| 1778156878 | 13.89° C | 67% | 1015.3 hPa | 0 mm | - | - | - |
| 1778156578 | 14.44° C | 67% | 1015.5 hPa | 0 mm | - | - | - |
| 1778156278 | 14.44° C | 69% | 1015.5 hPa | 0 mm | - | - | - |
| 1778155978 | 14.44° C | 69% | 1015.5 hPa | 0 mm | - | - | - |
| 1778155678 | 14.44° C | 67% | 1015.7 hPa | 0 mm | - | - | - |
| 1778155378 | 14.44° C | 66% | 1015.6 hPa | 0 mm | - | - | - |
| 1778155078 | 14.44° C | 66% | 1015.6 hPa | 0 mm | - | - | - |
| 1778154778 | 15° C | 65% | 1015.7 hPa | 0 mm | - | - | - |
* Rain latest hour (hover to see other rain measurements)
** Current wind speed in m/s (hover to see current wind gust speed)